Regional Weather Roundup
Issued by NWS Charleston, SC

Current Version | Previous Version | Graphics & Text | Print | Product List | Glossary On
Versions: 1 2 3 4 5 6 7 8 9 10 11 12 13 14 15 16 17 18 19 20 21 22 23 24 25 26 27 28 29 30 31 32 33 34 35 36 37 38 39 40 41 42 43 44 45 46 47 48 49 50
000
ASUS42 KCHS 241627
RWRCHS

REGIONAL WEATHER ROUNDUP
NATIONAL WEATHER SERVICE CHARLESTON SC
1100 AM EST TUE JAN 24 2017

NOTE: "FAIR" INDICATES FEW OR NO CLOUDS BELOW 12,000 FEET WITH NO
SIGNIFICANT WEATHER AND/OR OBSTRUCTIONS TO VISIBILITY.

NOT ALL STATIONS ARE QUALITY CONTROLLED. USE DATA WITH CAUTION...
ESPECIALLY DEWPOINT OBSERVATIONS.

SCZ027-030-031-034>040-042>050-241700-
...SOUTHEAST SOUTH CAROLINA...

CITY           SKY/WX    TMP DP  RH WIND       PRES   REMARKS
N CHARLESTON   SUNNY     59  43  55 NW10      29.76R
WATERFRONT PRK   N/A     56  46  69 W7        29.74R
MOUNT PLEASANT FAIR      61  46  59 W10       29.76S
JOHNS ISLAND     N/A     63  46  55 NW12      29.76S
PINOPOLIS        N/A     54  46  76 W8        29.68R
MONCKS CORNER  FAIR      59  43  55 NW5       29.75S
SUMMERVILLE    FAIR      59  45  58 W10       29.77F
BEAUFORT MCAS  SUNNY     60  45  57 W12G20    29.79R
BEAUFORT ARPT  FAIR      59  45  58 W14       29.79R
HILTON HEAD IS SUNNY     59  45  58 MISG      29.79R
WALTERBORO     SUNNY     59  45  58 W10       29.79S
ALLENDALE      FAIR      57  45  62 VRB7      29.79S

...SOUTHERN MIDLANDS AND PEE DEE...

CITY           SKY/WX    TMP DP  RH WIND       PRES   REMARKS
GEORGETOWN     FAIR      61  43  51 NW12      29.74R
KINGSTREE      FAIR      59  43  55 W12       29.74R
ORANGEBURG     NOT AVBL
BARNWELL       FAIR      59  45  58 W9        29.80R
AIKEN          FAIR      55  43  62 W9        29.82S
MANNING        FAIR      57  37  47 W9        29.75S
COLUMBIA       SUNNY     60  43  53 W12       29.76R
SUMTER         SUNNY     59  42  52 W10       29.72R
FLORENCE       SUNNY     59  45  59 W15       29.72R
MYRTLE BEACH   SUNNY     61  43  51 NW13G22   29.72R
N MYRTLE BEACH SUNNY     58  45  62 NW9G17    29.68S

$$

GAZ063-065-086>088-099>101-113>116-118-119-134>141-150-241700-
...SOUTHEAST GEORGIA...

CITY           SKY/WX    TMP DP  RH WIND       PRES   REMARKS
SAVANNAH ARPT  SUNNY     59  43  55 NW16      29.81R
HUNTER AAF     SUNNY     60  50  69 W14       29.78R
FORT STEWART   SUNNY     59  45  59 W10       29.81R
STATESBORO     SUNNY     60  48  64 NW12      29.82S
SYLVANIA       SUNNY    N/A N/A N/A NW14      29.82S
CLAXTON        FAIR      60  59  98 W12       29.83S

...CSRA...CENTRAL AND FAR SOUTHEAST GEORGIA...

CITY           SKY/WX    TMP DP  RH WIND       PRES   REMARKS
THOMSON        SUNNY     59  46  63 NW8G16    29.86R
AUGUSTA-BUSH   SUNNY     60  41  49 NW8       29.80R
AUGUSTA-DANIEL SUNNY     57  40  52 NW9       29.81R
SWAINSBORO     FAIR      57  45  62 W12       29.84S
VIDALIA        SUNNY     61  50  67 NW10      29.84S
EASTMAN        FAIR      59  37  43 W8        29.89S
HAZLEHURST     FAIR      61  49  64 W3        29.85S
ALMA           SUNNY     58  47  66 W8        29.86R
WAYCROSS       SUNNY     64  51  64 W10       29.86S
JESUP          FAIR      61  45  55 NW13      29.84F
BAXLEY         FAIR      61  50  67 W10       29.85S
BRUNSWICK      SUNNY     63  50  63 W13       29.84F
SAINT SIMONS   SUNNY     61  47  59 W9        29.83R

$$

SCZ027-028-034-036>038-045-046-048>050-GAZ119-141-241700-
...LAKE AND SUPPLEMENTAL COASTAL OBSERVATIONS...

STATION/POSITION TIME  TEMP    WIND        PRES    WAVE   SWELL
                       AIR SEA DIR/SP/G            HT/PER HT/PER/DIR
                 (UTC) (F)     (DEG/KT/KT) (MB)    (FT/S) (FT/S/D)
WINYAH BAY       1545   57     300/ 10     1006.0R
LAKE MURRAY      1550   54     270/ 11/ 14 1007.5R
ACE BASIN NERRS  1545   57     300/  4     1008.0S
FORT PULASKI     1600   56 58  320/ 15/ 17 1009.2
SAPELO ISLAND    1600   59     280/ 13     1010.0

$$

ANZ835-935-AMZ111-154-330-350-352-354-370-450-454-472-241700-
...C-MAN AND BUOY OBSERVATIONS...

STATION/POSITION TIME  TEMP    WIND        PRES    WAVE   SWELL
                       AIR SEA DIR/SP/G            HT/PER HT/PER/DIR
                 (UTC) (F)     (DEG/KT/KT) (MB)    (FT/S) (FT/S/D)
BUOY 41004       1550   57 69  290/ 17/ 21 1006.7R   6/ 7   2/110/12
BUOY 41008       1550   56 59  280/ 16/ 19 1009.4R   4/ 4   2/350/13
FOLLY BEACH CMAN 1600   58     290/  9/ 13 1008.1R
CAPERS NEARSHORE 1608   56 56  300/ 14/ 19 1007.3R
FRIPP NEARSHORE  1608   56 58  310/ 12/ 16 1008.5R


STATION/POSITION TIME  TEMP    WIND        PRES    WAVE   SWELL
                       AIR SEA DIR/SP/G            HT/PER HT/PER/DIR
                 (UTC) (F)     (DEG/KT/KT) (MB)    (FT/S) (FT/S/D)
5E ST. MARYS GA  1600      62                N/A     2/ 3   2/100/13
FRYING PAN BUOY  1610   56 69  280/ 17/ 21 1005.0
BUOY 41025       1550   47 74  320/ 25/ 31 1000.3R   9/10   5/160/10
CAPE LOOKOUT NC  1600   49     300/ 17/ 21 1002.4R
BUOY 41002       1550   65 71  310/ 25/ 33 1001.9R  14/11  10/270/11
BUOY 41010       NOT AVBL
ST AUGUSTINE FL  1600   62 63  300/ 11/ 14 1011.9R


$$



USA.gov is the U.S. government's official web portal to all federal, state and local government web resources and services.